• MPC Preparation (Info)

  • MPEC 2013-O17 : 2013 OH

    The following Minor Planet Electronic Circular may be linked-to from your own Web pages, but must not otherwise be redistributed electronically.

    A form allowing access to any MPEC is at the bottom of this page.


    Read MPEC 2013-O16 Read MPEC 2013-O18


    M.P.E.C. 2013-O17                                Issued 2013 July 17, 23:59 UT
    
         The Minor Planet Electronic Circulars contain information on unusual
             minor planets and routine data on comets.  They are published
       on behalf of Commission 20 of the International Astronomical Union by the
              Minor Planet Center, Smithsonian Astrophysical Observatory,
                              Cambridge, MA 02138, U.S.A.
    
                 Prepared using the Tamkin Foundation Computer Network
    
                                  MPC@CFA.HARVARD.EDU
                URL https://www.minorplanetcenter.net/    ISSN 1523-6714
    
                                        2013 OH
    
    Observations:
         K13O00H* C2013 07 16.52928 21 36 08.617+04 01 45.75         20.8 wLEO017F51
         K13O00H  C2013 07 16.54631 21 36 09.048+04 02 16.24         21.2 wLEO017F51
         K13O00H  C2013 07 16.56249 21 36 09.471+04 02 45.01         21.4 wLEO017F51
         K13O00H  C2013 07 16.57655 21 36 09.845+04 03 10.63         21.2 wLEO017F51
         K13O00H KC2013 07 17.08608921 36 27.23 +04 18 51.3          20.6 VqEO017K92
         K13O00H KC2013 07 17.09137521 36 27.37 +04 19 01.0          20.5 VqEO017K92
         K13O00H KC2013 07 17.09534121 36 27.48 +04 19 08.1          20.5 VqEO017K92
         K13O00H KC2013 07 17.35820721 36 36.73 +04 26 45.8          20.2 VqEO017H21
         K13O00H KC2013 07 17.36778421 36 36.98 +04 27 03.4          20.4 VqEO017H21
         K13O00H KC2013 07 17.37736921 36 37.24 +04 27 21.3          20.4 VqEO017H21
         K13O00H KC2013 07 17.38683621 36 37.48 +04 27 38.8          20.0 VqEO017H21
    
    Observer details:
    F51 Pan-STARRS 1, Haleakala.  Observers N. Primak, A. Schultz, T. Goggia,
        K. Chambers.  Measurer PS1 Science Consortium.  1.8-m Ritchey-Chretien
        + CCD.
    H21 Astronomical Research Observatory, Westfield.  Observer R. Holmes.
        Measurers T. Vorobjov, L. Buzzi, S. Foglia.  0.61-m f/4.0 astrograph + CCD.
    K92 Sutherland-LCOGT B.  Observer T. Lister.  1.0-m f/8 Ritchey-Chretien + CCD.
    
    Orbital elements:
    2013 OH                                                  Earth MOID = 0.0843 AU
    Epoch 2013 Apr. 18.0 TT = JDT 2456400.5                 MPC
    M 291.98435              (2000.0)            P               Q
    n   0.39200912     Peri.  188.11928     +0.67082946     -0.73937465
    a   1.8490072      Node   219.77791     +0.68536952     +0.64773325
    e   0.6140328      Incl.    5.16137     +0.28329571     +0.18375735
    P   2.51           H   20.9           G   0.15           U   9
    Residuals in seconds of arc
    130716 F51  0.1+  0.1-    130717 K92  0.1-  0.0     130717 H21  0.1+  0.1-
    130716 F51  0.1-  0.0     130717 K92  0.2-  0.0     130717 H21  0.1+  0.1+
    130716 F51  0.0   0.2-    130717 K92  0.1-  0.1-    130717 H21  0.2-  0.1+
    130716 F51  0.1+  0.3+    130717 H21  0.2+  0.1-
    
    Ephemeris:
    2013 OH                  a,e,i = 1.85, 0.61, 5                   q = 0.7137
    Date    TT    R. A. (2000) Decl.     Delta      r     Elong.  Phase     V
    2013 06 17    21 14 30.9 -05 48 00   0.8145  1.6331   125.9    30.2    22.8
    ...
    2013 07 02    21 26 49.3 -01 41 45   0.5968  1.4999   135.1    28.6    21.9
    ...
    2013 07 10    21 32 14.6 +01 08 26   0.4908  1.4261   139.5    27.6    21.4
    ...
    2013 07 16    21 35 50.5 +03 46 14   0.4161  1.3695   142.3    27.0    20.9
    2013 07 17    21 36 24.8 +04 16 00   0.4041  1.3600   142.7    26.9    20.8
    2013 07 18    21 36 58.6 +04 46 58   0.3922  1.3505   143.1    26.9    20.7
    ...
    2013 07 24    21 40 18.2 +08 24 09   0.3233  1.2927   144.5    27.2    20.2
    ...
    2013 08 01    21 45 04.4 +15 26 31   0.2386  1.2147   143.3    29.9    19.5
    ...
    2013 08 16    22 10 28.2 +49 41 10   0.1131  1.0674   116.2    58.4    18.4
    
    A. U. Tomatic                (C) Copyright 2013 MPC           M.P.E.C. 2013-O17
    

    Read MPEC 2013-O16 Read MPEC 2013-O18


    MPEC number:

    Enter an MPEC number in one of the following forms:

    • 1997-B01 (the full form)
    • J97B01 (the packed version of the full form)
    • B01 (the abbreviated form)